sat.trackr.live / text

‹ back to catalog

UNKNOWN

NORAD 81499

UNKNOWN UNKNOWN UNKNOWN

§ Identity

Operator
Country
Launch date
Launch site
Launch vehicle
Mass (kg)
RCS (m²)

External: N2YO · Heavens-Above

§ Orbital elements

Epoch: 2026-05-22T19:00:32.975712Z

Period
99.45 min
Inclination
74.0473°
Eccentricity
0.0001861
Mean motion
14.48020055 rev/d
Perigee alt
730.8 km
Apogee alt
733.4 km
Semi-major
7,110.3 km
B*
3.6904e-4
RAAN
280.0238°
Arg perigee
12.4779°
Mean anomaly
347.6426°
Rev number
50,572

§ Raw data

UNKNOWN1 81499U          26142.79204833  .00001344  00000+0  36904-3 0  99982 81499  74.0473 280.0238 0001861  12.4779 347.6426 14.48020055505727

JSON: /api/v1/satellites/81499 · /tle

For live sub-satellite position, see the globe view (requires WebGL).

§ Visibility from observer

Set your observer location to see the next 7 days of passes ≥ 10°. The values pass through the URL so the page stays shareable.

No JS? Fill the form by hand. The geolocation button needs JavaScript.